Location: Unnamed
(47.6578°N, 23.5640°E)
Time: 23:27:52
(UTC+03:00)

ISS - Pass Details

Date: 06 May 2020
Orbit: 418 x 421 km, 51.6° (Epoch: 08 May)

Event Time Altitude Azimuth Distance (km) Brightness Sun altitude
Exits shadow 02:32:15 16° 86° (E) 1,201 -1.2 -23.9°
Drops below altitude 10° 02:33:05 10° 79° (ENE) 1,498 -0.6 -23.8°
Enters shadow 03:31:06 -65° 247° (WSW) 12,060 3.6 -19.6°
Maximum altitude 04:06:46 61° 342° (NNW) 482 -3.4 -16.0°
